TimeCDT,TemperatureF,Dew PointF,Humidity,Sea Level PressureIn,VisibilityMPH,Wind Direction,Wind SpeedMPH,Gust SpeedMPH,PrecipitationIn,Events,Conditions,WindDirDegrees,DateUTC
12:15 AM,46.4,42.1,85,29.78,10.0,West,5.8,-,N/A,,Clear,260,2013-10-06 05:15:00
12:35 AM,45.7,41.9,87,29.78,10.0,West,6.9,-,N/A,,Clear,270,2013-10-06 05:35:00
12:55 AM,45.1,41.9,88,29.77,10.0,West,5.8,-,N/A,,Clear,270,2013-10-06 05:55:00
1:15 AM,45.5,41.4,85,29.77,10.0,WSW,3.5,-,N/A,,Clear,240,2013-10-06 06:15:00
1:35 AM,45.0,41.2,87,29.77,10.0,WSW,3.5,-,N/A,,Clear,240,2013-10-06 06:35:00
1:55 AM,45.5,40.5,83,29.77,10.0,West,4.6,-,N/A,,Clear,260,2013-10-06 06:55:00
2:15 AM,44.6,40.8,87,29.76,10.0,Calm,Calm,-,N/A,,Clear,0,2013-10-06 07:15:00
2:35 AM,43.9,41.0,90,29.75,10.0,Calm,Calm,-,N/A,,Clear,0,2013-10-06 07:35:00
2:55 AM,42.6,41.0,94,29.75,10.0,SSW,3.5,-,N/A,,Clear,200,2013-10-06 07:55:00
3:15 AM,43.5,41.4,92,29.75,10.0,Calm,Calm,-,N/A,,Mostly Cloudy,0,2013-10-06 08:15:00
3:35 AM,43.7,41.9,93,29.74,10.0,SSW,3.5,-,N/A,,Overcast,200,2013-10-06 08:35:00
3:55 AM,44.1,40.3,87,29.73,10.0,Calm,Calm,-,N/A,,Scattered Clouds,0,2013-10-06 08:55:00
4:15 AM,42.4,40.5,93,29.73,10.0,South,3.5,-,N/A,,Clear,170,2013-10-06 09:15:00
4:35 AM,41.5,40.5,96,29.72,10.0,South,3.5,-,N/A,,Clear,180,2013-10-06 09:35:00
4:55 AM,41.0,39.9,96,29.72,10.0,Calm,Calm,-,N/A,,Clear,0,2013-10-06 09:55:00
5:15 AM,41.2,40.1,96,29.73,10.0,Calm,Calm,-,N/A,,Clear,0,2013-10-06 10:15:00
5:35 AM,41.7,40.3,95,29.73,10.0,South,5.8,-,N/A,,Scattered Clouds,190,2013-10-06 10:35:00
5:55 AM,43.2,41.0,92,29.73,10.0,South,4.6,-,N/A,,Overcast,190,2013-10-06 10:55:00
6:15 AM,43.9,41.5,91,29.73,10.0,Calm,Calm,-,N/A,,Overcast,0,2013-10-06 11:15:00
6:35 AM,43.9,41.9,93,29.73,10.0,South,3.5,-,N/A,,Overcast,190,2013-10-06 11:35:00
6:55 AM,43.7,42.4,95,29.72,10.0,SE,3.5,-,N/A,,Overcast,140,2013-10-06 11:55:00
7:15 AM,43.2,41.5,94,29.71,10.0,Calm,Calm,-,N/A,,Overcast,0,2013-10-06 12:15:00
7:35 AM,44.1,42.8,95,29.71,10.0,Calm,Calm,-,N/A,,Overcast,0,2013-10-06 12:35:00
7:55 AM,45.7,43.2,91,29.71,10.0,Calm,Calm,-,N/A,,Overcast,0,2013-10-06 12:55:00
8:15 AM,45.3,43.3,93,29.72,10.0,Calm,Calm,-,N/A,,Overcast,0,2013-10-06 13:15:00
8:35 AM,45.5,43.2,92,29.72,10.0,Calm,Calm,-,N/A,,Overcast,0,2013-10-06 13:35:00
8:55 AM,46.0,43.3,90,29.72,10.0,Calm,Calm,-,N/A,,Overcast,0,2013-10-06 13:55:00
9:15 AM,46.4,43.7,90,29.72,10.0,Calm,Calm,-,N/A,,Overcast,0,2013-10-06 14:15:00
9:35 AM,46.6,42.6,86,29.72,10.0,Calm,Calm,-,N/A,,Overcast,0,2013-10-06 14:35:00
9:55 AM,46.6,43.5,89,29.73,10.0,SSW,3.5,-,N/A,,Overcast,210,2013-10-06 14:55:00
10:15 AM,46.6,43.2,88,29.73,10.0,Calm,Calm,-,N/A,,Overcast,0,2013-10-06 15:15:00
10:35 AM,46.9,43.0,86,29.72,10.0,Calm,Calm,-,N/A,,Overcast,0,2013-10-06 15:35:00
10:55 AM,47.3,42.1,82,29.72,10.0,Calm,Calm,-,N/A,,Overcast,0,2013-10-06 15:55:00
11:15 AM,47.8,41.9,80,29.72,10.0,Calm,Calm,-,N/A,,Overcast,0,2013-10-06 16:15:00
11:35 AM,48.2,40.1,74,29.72,10.0,Calm,Calm,-,N/A,,Overcast,0,2013-10-06 16:35:00
11:55 AM,48.4,38.8,70,29.72,10.0,Calm,Calm,-,N/A,,Overcast,0,2013-10-06 16:55:00
12:15 PM,49.8,41.0,72,29.72,10.0,Calm,Calm,-,N/A,,Overcast,0,2013-10-06 17:15:00
12:35 PM,50.2,39.0,66,29.72,10.0,Calm,Calm,-,N/A,,Overcast,0,2013-10-06 17:35:00
12:55 PM,50.9,38.1,62,29.71,10.0,Calm,Calm,-,N/A,,Overcast,0,2013-10-06 17:55:00
1:15 PM,52.0,37.2,57,29.70,10.0,Calm,Calm,-,N/A,,Overcast,0,2013-10-06 18:15:00
1:35 PM,51.3,36.0,56,29.69,10.0,Calm,Calm,-,N/A,,Overcast,0,2013-10-06 18:35:00
1:55 PM,50.4,36.9,60,29.69,10.0,South,4.6,-,N/A,,Overcast,180,2013-10-06 18:55:00
2:15 PM,49.6,37.8,64,29.69,10.0,SW,4.6,-,N/A,,Overcast,230,2013-10-06 19:15:00
2:35 PM,49.5,37.9,65,29.69,10.0,SW,5.8,-,N/A,,Overcast,220,2013-10-06 19:35:00
2:55 PM,48.7,39.7,71,29.69,10.0,WSW,8.1,-,N/A,,Overcast,240,2013-10-06 19:55:00
3:15 PM,48.0,41.5,78,29.69,10.0,WSW,6.9,-,N/A,,Overcast,250,2013-10-06 20:15:00
3:35 PM,47.7,41.7,80,29.69,10.0,West,6.9,-,N/A,,Overcast,260,2013-10-06 20:35:00
3:55 PM,47.7,42.3,82,29.69,10.0,West,5.8,-,N/A,,Overcast,270,2013-10-06 20:55:00
4:15 PM,47.7,43.0,84,29.70,10.0,West,4.6,-,N/A,,Overcast,270,2013-10-06 21:15:00
4:35 PM,47.7,42.1,81,29.70,10.0,West,8.1,-,N/A,,Overcast,270,2013-10-06 21:35:00
4:55 PM,47.3,40.6,78,29.71,10.0,WNW,5.8,-,N/A,,Overcast,290,2013-10-06 21:55:00
5:15 PM,47.1,40.8,79,29.71,10.0,West,4.6,-,N/A,,Overcast,270,2013-10-06 22:15:00
5:35 PM,46.9,40.8,79,29.72,10.0,West,3.5,-,N/A,,Overcast,270,2013-10-06 22:35:00
5:55 PM,46.6,40.8,80,29.72,10.0,West,5.8,-,N/A,,Overcast,260,2013-10-06 22:55:00
6:15 PM,46.4,41.4,83,29.73,10.0,West,4.6,-,N/A,,Overcast,260,2013-10-06 23:15:00
6:35 PM,46.4,41.5,83,29.74,10.0,West,5.8,-,N/A,,Overcast,260,2013-10-06 23:35:00
6:55 PM,46.4,41.9,84,29.74,10.0,WSW,4.6,-,N/A,,Overcast,240,2013-10-06 23:55:00
7:15 PM,46.0,42.4,87,29.75,10.0,WSW,4.6,-,N/A,,Overcast,250,2013-10-07 00:15:00
7:35 PM,46.0,42.4,87,29.75,10.0,WSW,5.8,-,N/A,,Overcast,240,2013-10-07 00:35:00
7:55 PM,46.0,42.8,88,29.76,10.0,WSW,4.6,-,N/A,,Overcast,240,2013-10-07 00:55:00
8:15 PM,45.9,42.8,89,29.76,10.0,WSW,4.6,-,N/A,,Overcast,240,2013-10-07 01:15:00
8:35 PM,45.7,43.7,93,29.77,10.0,West,3.5,-,N/A,,Overcast,280,2013-10-07 01:35:00
8:55 PM,45.5,44.4,96,29.76,10.0,SW,4.6,-,N/A,,Overcast,220,2013-10-07 01:55:00
9:15 PM,45.5,44.1,95,29.76,10.0,SW,4.6,-,N/A,,Overcast,220,2013-10-07 02:15:00
9:35 PM,45.5,43.7,93,29.77,10.0,West,6.9,-,N/A,,Mostly Cloudy,260,2013-10-07 02:35:00
9:55 PM,45.1,44.6,98,29.77,10.0,WSW,5.8,-,N/A,,Overcast,240,2013-10-07 02:55:00
10:15 PM,45.1,44.4,97,29.77,10.0,WSW,4.6,-,N/A,,Overcast,240,2013-10-07 03:15:00
10:35 PM,44.8,44.2,98,29.76,10.0,WSW,5.8,-,N/A,,Overcast,240,2013-10-07 03:35:00
10:55 PM,45.0,44.6,99,29.76,10.0,WSW,6.9,-,N/A,,Overcast,250,2013-10-07 03:55:00
11:15 PM,45.1,44.6,98,29.76,10.0,West,8.1,-,N/A,,Overcast,260,2013-10-07 04:15:00
11:35 PM,45.5,44.4,96,29.76,10.0,West,8.1,-,N/A,,Overcast,260,2013-10-07 04:35:00
11:55 PM,45.7,44.2,95,29.76,10.0,West,9.2,-,N/A,,Overcast,270,2013-10-07 04:55:00